Regional Weather Roundup
Issued by NWS

Home | Current Version | Previous Version | Graphics & Text | Print | Product List | Glossary On
Versions: 1 2 3 4 5 6 7 8 9 10 11 12 13 14 15 16 17 18 19 20 21 22 23 24 25 26 27 28 29 30 31 32 33 34 35 36 37 38 39 40 41 42 43 44 45 46 47 48 49 50
000
ASUS43 KLMK 310502
RWRKY
KENTUCKY REGIONAL WEATHER ROUNDUP
NATIONAL WEATHER SERVICE LOUISVILLE KY
100 AM EDT THU JUL 31 2014

NOTE "FAIR" INDICATES FEW OR NO CLOUDS BELOW 12,000 FEET
WITH NO SIGNIFICANT WEATHER AND/OR OBSTRUCTIONS TO VISIBILITY.

KYZ001>023-026-027-061>063-070>075-310600-
WESTERN AND SOUTH CENTRAL KENTUCKY

CITY           SKY/WX    TMP DP  RH WIND       PRES   REMARKS
PADUCAH        PTCLDY    64  61  90 CALM      30.07S
HENDERSON      MOCLDY    61  55  82 CALM      30.08R
OWENSBORO      MOCLDY    64  60  87 CALM      30.09R
HOPKINSVILLE   PTCLDY    65  59  80 CALM      30.08S
BOWLING GREEN  PTCLDY    65  58  78 CALM      30.10R
GLASGOW        MOCLDY    62  60  92 CALM      30.10R
$$

KYZ024-025-028>034-038-045-046-053-310600-
NORTH CENTRAL KENTUCKY

CITY           SKY/WX    TMP DP  RH WIND       PRES   REMARKS
LOUISVILLE/SDF MOCLDY    70  60  70 S3        30.08R
LOUISVILLE/LOU PTCLDY    67  59  75 CALM      30.08S
FORT KNOX      PTCLDY    62  60  90 W1        30.08R
$$

KYZ035>037-039>044-047>052-055>060-089>105-310600-
NORTHEAST KENTUCKY

CITY           SKY/WX    TMP DP  RH WIND       PRES   REMARKS
LEXINGTON      CLEAR     64  58  80 CALM      30.10R
COVINGTON      MOCLDY    68  60  75 CALM      30.07S
FRANKFORT      PTCLDY    62  59  90 CALM      30.08S
$$

KYZ054-064>069-076>088-106>120-310600-
SOUTHEAST KENTUCKY

CITY           SKY/WX    TMP DP  RH WIND       PRES   REMARKS
JACKSON        CLEAR     64  58  80 NE3       30.12R
LONDON         MOCLDY    62  59  90 CALM      30.12R
SOMERSET       NOT AVBL
MIDDLESBORO    PTCLDY    60  58  95 CALM      30.13S
MONTICELLO     PTCLDY    59  59 100 CALM      30.12S FOG
$$




USA.gov is the U.S. government's official web portal to all federal, state and local government web resources and services.